Location: Unspecified
(0.0000°N, 0.0000°E)
Time: 15:37:31
(UTC+00:00)

Envisat - Pass Details

Date: 18 February 2018
Orbit: 764 x 766 km, 98.2° (Epoch: 25 February)

Event Time Altitude Azimuth Distance (km) Brightness Sun altitude
Rises 20:30:44 0° 186° (S) 3,231 6.5 -33.4°
Reaches altitude 10° 20:33:15 10° 195° (SSW) 2,303 5.7 -34.1°
Maximum altitude 20:37:44 32° 258° (WSW) 1,283 4.6 -35.1°
Enters shadow 20:39:11 27° 289° (WNW) 1,422 4.7 -35.5°
Exits shadow 20:42:33 - 322° (NW) 2,410 5.8 -36.3°
Sets 20:44:44 0° 330° (NNW) 3,216 6.4 -36.8°
